TimeEST,TemperatureF,Dew PointF,Humidity,Sea Level PressureIn,VisibilityMPH,Wind Direction,Wind SpeedMPH,Gust SpeedMPH,PrecipitationIn,Events,Conditions,WindDirDegrees,DateUTC
12:53 AM,37.9,32.0,79,30.26,10.0,NNW,10.4,-,0.00,Rain,Light Rain,330,2013-01-15 05:53:00
1:53 AM,37.0,33.1,86,30.25,9.0,North,3.5,-,0.05,Rain,Rain,360,2013-01-15 06:53:00
2:53 AM,36.0,33.1,89,30.22,10.0,North,5.8,-,0.00,Rain,Light Rain,10,2013-01-15 07:53:00
3:53 AM,36.0,34.0,93,30.24,10.0,North,4.6,-,0.02,Rain,Light Rain,350,2013-01-15 08:53:00
4:53 AM,36.0,33.1,89,30.20,10.0,North,5.8,-,0.00,,Overcast,10,2013-01-15 09:53:00
5:53 AM,36.0,34.0,93,30.22,10.0,Calm,Calm,-,0.00,,Overcast,0,2013-01-15 10:53:00
6:53 AM,36.0,34.0,93,30.25,10.0,Calm,Calm,-,N/A,,Overcast,0,2013-01-15 11:53:00
7:53 AM,37.0,33.1,86,30.28,10.0,North,4.6,-,N/A,,Overcast,350,2013-01-15 12:53:00
8:53 AM,37.0,28.9,73,30.29,10.0,North,8.1,-,N/A,,Overcast,350,2013-01-15 13:53:00
9:53 AM,37.0,28.0,70,30.30,10.0,North,8.1,-,N/A,,Overcast,350,2013-01-15 14:53:00
10:53 AM,37.9,28.0,68,30.29,10.0,North,9.2,-,N/A,,Overcast,350,2013-01-15 15:53:00
11:53 AM,39.0,28.0,65,30.27,10.0,North,8.1,-,N/A,,Scattered Clouds,350,2013-01-15 16:53:00
12:53 PM,39.9,28.0,63,30.26,10.0,NNW,5.8,-,N/A,,Partly Cloudy,340,2013-01-15 17:53:00
1:53 PM,39.9,28.9,65,30.25,10.0,NNW,6.9,-,N/A,,Clear,330,2013-01-15 18:53:00
2:53 PM,39.9,28.9,65,30.25,10.0,North,4.6,-,N/A,,Clear,350,2013-01-15 19:53:00
4:53 PM,37.9,28.9,70,30.25,10.0,Calm,Calm,-,N/A,,Clear,0,2013-01-15 21:53:00
5:53 PM,37.0,28.9,73,30.25,10.0,Calm,Calm,-,N/A,,Partly Cloudy,0,2013-01-15 22:53:00
6:53 PM,35.1,28.9,78,30.26,10.0,Calm,Calm,-,N/A,,Partly Cloudy,0,2013-01-15 23:53:00
7:53 PM,37.0,28.9,73,30.25,10.0,NNW,5.8,-,N/A,,Overcast,340,2013-01-16 00:53:00
8:53 PM,37.9,27.0,65,30.25,10.0,North,4.6,-,N/A,,Overcast,350,2013-01-16 01:53:00
9:53 PM,37.9,27.0,65,30.25,10.0,North,3.5,-,N/A,,Overcast,350,2013-01-16 02:53:00
10:53 PM,37.0,27.0,67,30.24,10.0,Calm,Calm,-,N/A,,Overcast,0,2013-01-16 03:53:00
11:53 PM,37.0,27.0,67,30.21,10.0,North,5.8,-,N/A,,Overcast,10,2013-01-16 04:53:00